Regional Weather Roundup
Issued by NWS

Home | Current Version | Previous Version | Text Only | Print | Product List | Glossary Off
Versions: 1 2 3 4 5 6 7 8 9 10 11 12 13 14 15 16 17 18 19 20 21 22 23 24 25 26 27 28 29 30 31 32 33 34 35 36 37 38 39 40 41 42 43 44 45 46 47 48 49 50

000
ASUS44 KMEG 300800
RWRTN
TENNESSEE HOURLY STATE WEATHER ROUNDUP
NATIONAL WEATHER SERVICE MEMPHIS TN
300 AM CDT TUE JUN 30 2015

TNZ002-004-019-021-049-052-054-088>092-300900-
WEST TENNESSEE

CITY           SKY/WX    TMP DP  RH WIND       PRES   REMARKS
MEMPHIS INTL   MOCLDY    72  65  78 VRB6      29.91S
NWS MEMPHIS      N/A     69 N/A N/A MISG        N/A
JACKSON        CLEAR     71  67  87 S5        29.89F
DYERSBURG        N/A    N/A N/A N/A MISG        N/A
PARIS          CLEAR     66  64  94 CALM      29.88F
LEXINGTON      CLEAR     68  66  94 S5        29.90S
$$

TNZ008-025-027-028-033-062-065-066-300900-
NORTH MIDDLE TENNESSEE

CITY           SKY/WX    TMP DP  RH WIND       PRES   REMARKS
NASHVILLE      MOCLDY    71  70  96 CALM      29.90F
CLARKSVILLE    CLEAR     68  67  96 S3        29.88S
COOKEVILLE     MOCLDY    70  70 100 CALM      29.93F
CROSSVILLE     TSTM      65  61  87 CALM      29.98F FOG
$$

TNZ061-075-076-078-094-096-097-300900-
SOUTH MIDDLE TENNESSEE

CITY           SKY/WX    TMP DP  RH WIND       PRES   REMARKS
FAYETTEVILLE   CLEAR     72  64  78 SW5       29.93F
TULLAHOMA      CLEAR     72  64  78 CALM      29.93F
WINCHESTER     CLEAR     77  66  69 S7        29.92F
COLUMBIA       CLEAR     70  70 100 CALM      29.91S
SHELBYVILLE    CLOUDY    73  72  94 NW3       29.94R
$$

TNZ017-018-042-046-047-300900-
NORTHEAST TENNESSEE

CITY           SKY/WX    TMP DP  RH WIND       PRES   REMARKS
TRI CITIES     CLOUDY    69  61  75 CALM      29.96S
ELIZABETHTON   PTSUNNY   63  63 100 CALM      29.97S
$$

TNZ012-013-036-069-073-074-300900-
CENTRAL EAST TENNESSEE

CITY           SKY/WX    TMP DP  RH WIND       PRES   REMARKS
KNOXVILLE      LGT RAIN  68  65  90 CALM      29.93F
OAK RIDGE      LGT RAIN  66  64  93 W9        30.01R FOG
GATLINBURG     PTSUNNY   66  64  94 S6        29.94S
$$

TNZ083-085-099-300900-
SOUTHEAST TENNESSEE

CITY           SKY/WX    TMP DP  RH WIND       PRES   REMARKS
CHATTANOOGA    PTCLDY    74  63  68 S6        29.95R
$$

SKY/WX REPORTED AS FAIR MEANS FEW OR NO CLOUDS BELOW
12 THOUSAND FEET.



USA.gov is the U.S. government's official web portal to all federal, state and local government web resources and services.